When you browse on this site, cookies collect data to enhance your experience and personalize the content and advertising you see.
Visit our Privacy Policy to learn more. By continuing to use the site, you agree to this use of cookies and data.
  • en Suisse
  • Liste des pays
  • À 7 jours
  • Température de l'eau
  • Carte satellitaire
  • Carte météo
  • Widgets météo
  • user-avatar
    Se connecter

    Météo par heure à Plaskivshchyna

    Ce jour, 21 Juillet, Dimanche

    Heure Température Précipitation Vent Pression Humidité
    00:00 +18°C° 0 mm 0 m/s 754 mmHg 74%
    01:00 +18°C° 0 mm 0 m/s 754 mmHg 74%
    02:00 +18°C° 0 mm 0 m/s 754 mmHg 74%
    03:00 +18°C° 0 mm 0 m/s 754 mmHg 74%
    04:00 +18°C° 0 mm 0 m/s 754 mmHg 75%
    05:00 +18°C° 0 mm 0 m/s 754 mmHg 75%
    06:00 +22°C° 0.1 mm 1 m/s 754 mmHg 72%
    07:00 +23°C° 0.1 mm 1 m/s 754 mmHg 69%
    08:00 +24°C° 0.1 mm 1 m/s 754 mmHg 66%
    09:00 +25°C° 0.7 mm 1 m/s 754 mmHg 60%
    10:00 +27°C° 0.7 mm 1 m/s 754 mmHg 54%
    11:00 +28°C° 0.7 mm 1 m/s 754 mmHg 48%
    12:00 +28°C° 0 mm 1 m/s 754 mmHg 47%
    13:00 +29°C° 0 mm 1 m/s 754 mmHg 45%
    14:00 +29°C° 0 mm 1 m/s 753 mmHg 43%
    15:00 +29°C° 0 mm 1 m/s 753 mmHg 46%
    16:00 +29°C° 0 mm 1 m/s 754 mmHg 49%
    17:00 +29°C° 0 mm 1 m/s 754 mmHg 52%
    18:00 +27°C° 0 mm 1 m/s 753 mmHg 55%
    19:00 +25°C° 0 mm 1 m/s 753 mmHg 59%
    20:00 +24°C° 0 mm 1 m/s 753 mmHg 62%
    21:00 +23°C° 0.1 mm 1 m/s 753 mmHg 65%
    22:00 +22°C° 0.1 mm 1 m/s 754 mmHg 68%
    23:00 +22°C° 0.1 mm 1 m/s 754 mmHg 71%

    Demain, 22 Juillet, Lundi

    Heure Température Précipitation Vent Pression Humidité
    00:00 +21°C° 0 mm 1 m/s 754 mmHg 73%
    01:00 +21°C° 0 mm 1 m/s 753 mmHg 76%
    02:00 +20°C° 0 mm 1 m/s 753 mmHg 78%
    03:00 +20°C° 0 mm 1 m/s 753 mmHg 79%
    04:00 +20°C° 0 mm 1 m/s 753 mmHg 80%
    05:00 +20°C° 0 mm 1 m/s 753 mmHg 81%
    06:00 +22°C° 0 mm 1 m/s 753 mmHg 76%
    07:00 +24°C° 0 mm 2 m/s 753 mmHg 70%
    08:00 +25°C° 0 mm 2 m/s 753 mmHg 65%
    09:00 +27°C° 0.1 mm 3 m/s 753 mmHg 60%
    10:00 +28°C° 0.1 mm 3 m/s 752 mmHg 55%
    11:00 +30°C° 0.1 mm 4 m/s 752 mmHg 50%
    12:00 +30°C° 0.1 mm 4 m/s 752 mmHg 50%
    13:00 +30°C° 0.1 mm 4 m/s 752 mmHg 50%
    14:00 +30°C° 0.1 mm 4 m/s 751 mmHg 50%
    15:00 +28°C° 1.1 mm 4 m/s 751 mmHg 60%
    16:00 +26°C° 1.1 mm 4 m/s 750 mmHg 70%
    17:00 +23°C° 1.1 mm 4 m/s 750 mmHg 80%
    18:00 +23°C° 1.6 mm 4 m/s 750 mmHg 84%
    19:00 +22°C° 1.6 mm 3 m/s 750 mmHg 87%
    20:00 +21°C° 1.6 mm 3 m/s 750 mmHg 90%
    21:00 +20°C° 0.1 mm 3 m/s 750 mmHg 92%
    22:00 +19°C° 0.1 mm 3 m/s 750 mmHg 94%
    23:00 +19°C° 0.1 mm 3 m/s 750 mmHg 96%

    Après-demain, 23 Juillet, Mardi

    Heure Température Précipitation Vent Pression Humidité
    00:00 +18°C° 0 mm 3 m/s 750 mmHg 96%
    01:00 +18°C° 0 mm 4 m/s 749 mmHg 96%
    02:00 +18°C° 0 mm 4 m/s 749 mmHg 96%
    03:00 +18°C° 0 mm 3 m/s 749 mmHg 96%
    04:00 +18°C° 0 mm 3 m/s 749 mmHg 96%
    05:00 +17°C° 0 mm 3 m/s 750 mmHg 96%
    06:00 +18°C° 0 mm 3 m/s 750 mmHg 92%
    07:00 +19°C° 0 mm 3 m/s 750 mmHg 89%
    08:00 +20°C° 0 mm 4 m/s 750 mmHg 85%
    09:00 +21°C° 0 mm 4 m/s 750 mmHg 82%
    10:00 +21°C° 0 mm 4 m/s 750 mmHg 79%
    11:00 +22°C° 0 mm 4 m/s 750 mmHg 76%
    12:00 +22°C° 0 mm 4 m/s 750 mmHg 76%
    13:00 +22°C° 0 mm 4 m/s 750 mmHg 76%
    14:00 +22°C° 0 mm 4 m/s 750 mmHg 76%
    15:00 +21°C° 0 mm 4 m/s 750 mmHg 76%
    16:00 +21°C° 0 mm 4 m/s 750 mmHg 76%
    17:00 +21°C° 0 mm 3 m/s 750 mmHg 76%
    18:00 +20°C° 0 mm 3 m/s 750 mmHg 77%
    19:00 +20°C° 0 mm 3 m/s 750 mmHg 78%
    20:00 +19°C° 0 mm 2 m/s 750 mmHg 80%
    21:00 +19°C° 0 mm 3 m/s 750 mmHg 81%
    22:00 +18°C° 0 mm 3 m/s 750 mmHg 83%
    23:00 +18°C° 0 mm 3 m/s 750 mmHg 84%

    24 Juillet, Mercredi

    Heure Température Précipitation Vent Pression Humidité
    00:00 +18°C° 0 mm 3 m/s 749 mmHg 84%
    01:00 +18°C° 0 mm 2 m/s 749 mmHg 84%
    02:00 +18°C° 0 mm 2 m/s 749 mmHg 84%
    03:00 +18°C° 0 mm 2 m/s 749 mmHg 86%
    04:00 +18°C° 0 mm 3 m/s 749 mmHg 88%
    05:00 +17°C° 0 mm 3 m/s 749 mmHg 91%
    06:00 +18°C° 0 mm 3 m/s 749 mmHg 88%
    07:00 +19°C° 0 mm 3 m/s 749 mmHg 85%
    08:00 +19°C° 0 mm 3 m/s 749 mmHg 83%
    09:00 +20°C° 0.1 mm 4 m/s 749 mmHg 78%
    10:00 +22°C° 0.1 mm 4 m/s 749 mmHg 74%
    11:00 +23°C° 0.1 mm 4 m/s 749 mmHg 69%
    12:00 +23°C° 0.6 mm 4 m/s 749 mmHg 70%
    13:00 +23°C° 0.6 mm 4 m/s 749 mmHg 71%
    14:00 +23°C° 0.6 mm 4 m/s 749 mmHg 72%
    15:00 +23°C° 0.1 mm 4 m/s 749 mmHg 72%
    16:00 +23°C° 0.1 mm 4 m/s 749 mmHg 72%
    17:00 +23°C° 0.1 mm 4 m/s 749 mmHg 72%
    18:00 +22°C° 0.3 mm 4 m/s 749 mmHg 78%
    19:00 +21°C° 0.3 mm 4 m/s 749 mmHg 84%
    20:00 +19°C° 0.3 mm 3 m/s 749 mmHg 89%
    21:00 +19°C° 0.1 mm 4 m/s 749 mmHg 91%
    22:00 +19°C° 0.1 mm 4 m/s 749 mmHg 92%
    23:00 +18°C° 0.1 mm 4 m/s 749 mmHg 93%

    25 Juillet, Jeudi

    Heure Température Précipitation Vent Pression Humidité
    00:00 +18°C° 0 mm 4 m/s 749 mmHg 94%
    01:00 +17°C° 0 mm 5 m/s 749 mmHg 95%
    02:00 +17°C° 0 mm 5 m/s 749 mmHg 95%
    03:00 +17°C° 0 mm 5 m/s 749 mmHg 95%
    04:00 +16°C° 0 mm 5 m/s 750 mmHg 94%
    05:00 +16°C° 0 mm 5 m/s 750 mmHg 93%
    06:00 +17°C° 0 mm 5 m/s 750 mmHg 88%
    07:00 +20°C° 0 mm 6 m/s 750 mmHg 82%
    08:00 +21°C° 0 mm 6 m/s 750 mmHg 77%
    09:00 +22°C° 0 mm 6 m/s 751 mmHg 71%
    10:00 +24°C° 0 mm 6 m/s 751 mmHg 65%
    11:00 +26°C° 0 mm 7 m/s 751 mmHg 59%
    12:00 +26°C° 0 mm 7 m/s 751 mmHg 58%
    13:00 +27°C° 0 mm 6 m/s 750 mmHg 57%
    14:00 +27°C° 0 mm 6 m/s 750 mmHg 55%
    15:00 +27°C° 0 mm 6 m/s 750 mmHg 57%
    16:00 +27°C° 0 mm 6 m/s 750 mmHg 59%
    17:00 +26°C° 0 mm 5 m/s 750 mmHg 62%
    18:00 +25°C° 0 mm 5 m/s 751 mmHg 67%
    19:00 +22°C° 0 mm 4 m/s 751 mmHg 73%
    20:00 +20°C° 0 mm 3 m/s 751 mmHg 79%
    21:00 +20°C° 0 mm 3 m/s 751 mmHg 80%
    22:00 +19°C° 0 mm 3 m/s 751 mmHg 81%
    23:00 +19°C° 0 mm 3 m/s 751 mmHg 82%

    26 Juillet, Vendredi

    Heure Température Précipitation Vent Pression Humidité
    00:00 +18°C° 0 mm 3 m/s 751 mmHg 84%
    01:00 +18°C° 0 mm 3 m/s 751 mmHg 85%
    02:00 +17°C° 0 mm 3 m/s 751 mmHg 86%
    03:00 +17°C° 0 mm 3 m/s 751 mmHg 87%
    04:00 +17°C° 0 mm 3 m/s 750 mmHg 88%
    05:00 +17°C° 0 mm 3 m/s 750 mmHg 89%
    06:00 +19°C° 0 mm 3 m/s 750 mmHg 85%
    07:00 +21°C° 0 mm 3 m/s 750 mmHg 81%
    08:00 +22°C° 0 mm 4 m/s 750 mmHg 77%
    09:00 +25°C° 0 mm 4 m/s 750 mmHg 71%
    10:00 +26°C° 0 mm 5 m/s 750 mmHg 65%
    11:00 +27°C° 0 mm 5 m/s 750 mmHg 59%
    12:00 +28°C° 0 mm 5 m/s 749 mmHg 57%
    13:00 +28°C° 0 mm 4 m/s 749 mmHg 56%
    14:00 +28°C° 0 mm 4 m/s 748 mmHg 55%
    15:00 +27°C° 0.2 mm 4 m/s 748 mmHg 59%
    16:00 +27°C° 0.2 mm 3 m/s 747 mmHg 62%
    17:00 +26°C° 0.2 mm 3 m/s 747 mmHg 66%
    18:00 +25°C° 0.4 mm 3 m/s 747 mmHg 73%
    19:00 +22°C° 0.4 mm 3 m/s 747 mmHg 79%
    20:00 +21°C° 0.4 mm 3 m/s 747 mmHg 86%
    21:00 +20°C° 0 mm 3 m/s 746 mmHg 88%
    22:00 +19°C° 0 mm 3 m/s 746 mmHg 90%
    23:00 +19°C° 0 mm 3 m/s 746 mmHg 93%
    Voir plus